Location: Boissi�res
(45.2500°N, 2.3667°E)
Time: 02:25:40
(UTC+00:00)

H-2A R/B - Pass Details

Date: 03 March 2021
Orbit: 578 x 654 km, 98.5° (Epoch: 20 April)

Event Time Altitude Azimuth Distance (km) Brightness Sun altitude
Rises 18:31:28 0° 2° (N) 2,807 5.4 -9.7°
Reaches altitude 10° 18:33:56 10° 348° (NNW) 1,901 4.7 -10.2°
Maximum altitude 18:37:13 24° 295° (WNW) 1,225 4.5 -10.8°
Drops below altitude 10° 18:40:31 10° 241° (WSW) 1,896 5.5 -11.3°
Sets 18:42:58 0° 227° (SW) 2,798 6.2 -11.8°
